Regional Weather Roundup
Issued by NWS

Home | Current Version | Previous Version | Graphics & Text | Print | Product List | Glossary On
Versions: 1 2 3 4 5 6 7 8 9 10 11 12 13 14 15 16 17 18 19 20 21 22 23 24 25 26 27 28 29 30 31 32 33 34 35 36 37 38 39 40 41 42 43 44 45 46 47 48 49 50
000
ASUS45 KPSR 182010
RWRAZ

ARIZONA HOURLY REGIONAL WEATHER ROUNDUP
NATIONAL WEATHER SERVICE PHOENIX AZ
100 PM MST SAT NOV 18 2017

NOTE: FAIR INDICATES FEW OR NO CLOUDS BELOW 12,000 FEET WITH NO
SIGNIFICANT WEATHER AND/OR OBSTRUCTIONS TO VISIBILITY.

AZZ001>003-036-182100-
NORTHWEST ARIZONA

CITY           SKY/WX    TMP DP  RH WIND       PRES   REMARKS
BULLHEAD CITY  SUNNY     64  16  15 N32       30.22F
KINGMAN        SUNNY     59  15  18 N13       30.27F
$$

AZZ004>008-015-016-018-182100-
NORTH CENTRAL ARIZONA

CITY           SKY/WX    TMP DP  RH WIND       PRES   REMARKS
GRAND CANYON   SUNNY     46   2  16 NE12      30.34F
WILLIAMS       SUNNY     54   1  12 SW3       30.30F
PRESCOTT       SUNNY     56   7  14 N3        30.26F
FLAGSTAFF      SUNNY     44  -1  15 E15G21    30.33F
PAYSON         SUNNY     59  16  18 CALM      30.26F
PAGE           SUNNY     48  10  21 VRB3      30.38F
$$

AZZ009>014-017-182100-
NORTHEAST ARIZONA

CITY           SKY/WX    TMP DP  RH WIND       PRES   REMARKS
WINSLOW        SUNNY     49  11  21 CALM      30.36F
SAINT JOHNS    SUNNY     50   9  19 VRB6      30.31F
WINDOW ROCK    SUNNY     46   8  21 CALM      30.32F
SHOW LOW       SUNNY     46   9  21 N12       30.33F
$$

AZZ540-542>544-546-548-182100-
GREATER PHOENIX AREA

CITY           SKY/WX    TMP DP  RH WIND       PRES   REMARKS
PHOENIX        MOSUNNY   75  34  22 NE3       30.10F
BUCKEYE        SUNNY     75  75 100 NE6       30.11F
GLENDALE       SUNNY     75  28  17 CALM      30.13F
LUKE AFB       SUNNY     76  28  17 N6        30.10F
DEER VALLEY    SUNNY     76  27  16 VRB7      30.11F
SCOTTSDALE     SUNNY     75  32  20 CALM      30.12F
MESA-FALCON    SUNNY     73  30  20 N7        30.12F
MESA-GATEWAY   SUNNY     75  30  19 N5        30.12F
CHANDLER       SUNNY     75  28  17 NE6       30.11F
$$

AZZ539-553-182100-
SOUTHWEST MARICOPA COUNTY AND PINAL COUNTY

CITY           SKY/WX    TMP DP  RH WIND       PRES   REMARKS
CASA GRANDE    NOT AVBL
$$

AZZ503-504-507>509-182100-
SOUTHEAST ARIZONA

CITY           SKY/WX    TMP DP  RH WIND       PRES   REMARKS
TUCSON         SUNNY     76  39  26 N9        30.12F
DAVIS-MONTHAN  SUNNY     77  38  25 NW6       30.10F
RYAN FIELD     SUNNY     75  39  27 N5        30.12F
NOGALES        SUNNY     75  33  21 W6        30.13F
SIERRA VISTA   SUNNY     69  36  30 N7        30.19F
DOUGLAS        SUNNY     70  34  26 VRB5      30.16F
SAFFORD        SUNNY     70  30  22 VRB6      30.13F
$$

AZZ532-182100-
SOUTHWEST ARIZONA

CITY           SKY/WX    TMP DP  RH WIND       PRES   REMARKS
YUMA           SUNNY     76  24  14 N18G24    30.12F
$$

CAZ041-043-047-048-061-525>527-560>570-182100-
SOUTHERN CALIFORNIA

CITY           SKY/WX    TMP DP  RH WIND       PRES   REMARKS
DOWNTOWN L.A.  SUNNY     75  50  41 CALM      30.11F
L.A. AIRPORT   MOSUNNY   73  54  51 W10       30.12F
SAN DIEGO      PTSUNNY   69  57  65 NW9       30.11F
BURBANK        SUNNY     75  35  23 W6        30.13F
ONTARIO        MOSUNNY   74  44  34 S5        30.12F
RIVERSIDE      SUNNY     76  26  15 NE12G21   30.12F
PALM SPRINGS   SUNNY     77  19  11 CALM      30.17F
EL CENTRO NAS  MOSUNNY   76  22  13 CALM      30.16F
IMPERIAL       SUNNY     76  28  17 NW7       30.14F
BLYTHE         SUNNY     72  15  11 NW16      30.18F
NEEDLES        SUNNY     69  15  12 N21G29    30.23F
$$

NVZ020-UTZ003-182100-
SOUTHERN NEVADA-UTAH

CITY           SKY/WX    TMP DP  RH WIND       PRES   REMARKS
LAS VEGAS      SUNNY     58  12  16 NE6       30.32F
SALT LAKE CITY MOSUNNY   41  21  44 VRB3      30.43F
$$

NMZ009-TXZ055-182100-
NEW MEXICO-WEST TEXAS

CITY           SKY/WX    TMP DP  RH WIND       PRES   REMARKS
ALBUQUERQUE    MOSUNNY   48   4  16 NW7       30.32F
EL PASO        MOSUNNY   66  29  24 N13       30.18F
$$


........................KEY........................
SKY/WX - SKY CONDITION/WEATHER
TMP    - TEMPERATURE IN FAHRENHEIT
DP     - DEW POINT IN FAHRENHEIT
RH     - RELATIVE HUMIDITY IN PERCENT
WIND   - DIRECTION AND SPEED IN MILES PER HOUR (MPH)
VRB    - VARIABLE WIND DIRECTION
PRES   - MEAN SEA LEVEL PRESSURE IN INCHES OF MERCURY
         F - FALLING PRESSURE   R - RISING PRESSURE
         S - STEADY PRESSURE
VSB    - VISIBILITY IN MILES
HX     - HEAT INDEX IN FAHRENHEIT
WCI    - WIND CHILL INDEX IN FAHRENHEIT
TC     - TEMPERATURE IN CELSIUS WHICH IS ALSO KNOWN AS
         TEMPERATURE IN CENTIGRADE
AFB    - AIR FORCE BASE
         LUKE AFB IS LUKE AIR FORCE BASE
         DAVIS-MONTHAN IS DAVIS-MONTHAN AIR FORCE BASE
NAS    - NAVAL AIR STATION
         EL CENTRO NAS IS EL CENTRO NAVAL AIR STATION
N/A    - NOT AVAILABLE




USA.gov is the U.S. government's official web portal to all federal, state and local government web resources and services.